AVUM R/B

基本信息
目录编号:
49467
目录名称:
AVUM R/B
国际标识:
2021-105D
轨道中心:
EARTH
物体状态:
在轨
发射日期:
2021-11-16 UTC
国别:
法国 (FR)
轨道信息
数据来源: 国际轨道数据
星历时间: 2026-07-14T11:28:12+0800
半长轴: 6841.497km
偏心率: 0.0081503
轨道倾角: 74.921°
近地点辐角: 248.035°
升交点赤经: 28.043°
平近点角: 111.219°
近地点: 407.599km
远地点: 519.121km
周期: 93.861分钟
每日圈数: 15.341792
详细信息
发射场:
FRGUI
轨道高度:
LEO
数据来源:
AOE Integration Group
参考系:
TEME
时间系统:
UTC
历元类型:
SGP4
2D轨道图
3D轨道图
轨道高度分析图
轨道倾角分析图
轨道综合分析图
查看轨道综合分析图